[[{"header":{"parameterUnit":"m.s-1","parameterCategory":1,"la1":30.2991,"la2":30.254,"lo1":-89.0895,"lo2":-89.0444,"dy":0.0017,"dx":0.0017,"nx":28,"ny":28,"refTime":"2023-09-10T21:00:00:Z","depth":0,"parameterNumber":2,"parameterNumberName":"U-component_of_WINDS"},"data":[0,0,0,0,0,0,0,0,0,0,0,0,0,0,0,0,0,0,0,0,0,0,0,0,0,0,0,0,0,0,0,0,0,0,0,0,0,0,0,0,0,0,0,0,0,0,0,0,0,0,0,0,0,0,0,0,0,0,1.8085,1.8086,0,1.8222,1.8224,1.8225,1.8274,1.8274,1.8273,1.8273,1.8412,1.8416,1.842,0,0,0,0,0,0,0,0,0,0,0,0,0,1.7863,1.7867,1.8085,1.8087,1.8088,1.8222,1.8224,1.8226,1.8274,1.8273,1.8273,1.8272,1.841,1.8415,1.842,0,0,0,0,0,0,0,0,0,0,0,0,0,1.7975,1.7868,1.8084,1.8129,1.8134,1.8222,1.8224,1.8226,1.8274,1.8273,1.8273,1.8272,1.8409,1.8415,1.8421,1.8474,0,0,1.844,1.8443,0,0,0,0,0,0,0,0,1.7969,1.7984,1.812,1.8126,1.8132,1.823,1.8197,1.8309,1.8274,1.8221,1.8273,1.8272,1.8352,1.8363,1.839,1.8481,1.8487,1.8441,1.8444,1.8447,1.8449,0,0,0,0,0,0,0,1.7961,1.7978,1.8139,1.8122,1.8129,1.8141,1.8156,1.8218,1.8289,1.8225,1.8229,1.8245,1.8355,1.8384,1.8394,1.8489,1.844,1.8446,1.845,1.8452,1.863,1.8631,0,0,0,0,0,0,1.7946,1.7971,1.8135,1.8143,1.8047,1.8145,1.8162,1.8199,1.8288,1.8301,1.8246,1.8247,1.8374,1.8386,1.8399,1.8467,1.8447,1.8453,1.8456,1.8629,1.863,1.8631,0,0,0,0,0,0,1.7941,1.796,1.8129,1.8058,1.8081,1.815,1.8191,1.8202,1.8232,1.8303,1.8316,1.8262,1.8374,1.839,1.8455,1.8472,1.8456,1.8461,1.8627,1.8629,1.863,1.8602,0,0,0,0,0,0,1.7935,1.7958,1.798,1.8058,1.8084,1.8184,1.8192,1.8206,1.8242,1.8245,1.8323,1.8335,1.8374,1.8445,1.8461,1.848,1.8466,1.8626,1.8628,1.863,1.8602,1.8603,1.8603,0,0,0,0,0,1.7927,1.7966,1.7981,1.8,1.8113,1.8185,1.8199,1.8244,1.8244,1.8265,1.8311,1.8332,1.8468,1.8452,1.847,1.8491,1.8625,1.8628,1.863,1.8602,1.8603,1.8603,0,0,0,0,0,0,1.7887,1.7977,1.7994,1.8061,1.8115,1.8193,1.8221,1.8244,1.8299,1.8299,1.8352,1.8369,1.843,1.8467,1.8448,1.8547,1.8548,1.8554,1.852,1.8522,1.8522,1.8512,1.8471,0,0,0,0,0,1.7886,1.7938,1.8014,1.8065,1.8091,1.8151,1.8184,1.8215,1.8272,1.8295,1.8346,1.8401,1.8456,1.8491,1.8546,1.8608,1.8625,1.8631,1.8632,1.8632,1.8636,1.8671,1.8675,1.8638,1.8638,1.8638,0,0,1.7885,1.794,1.797,1.8058,1.8104,1.8155,1.817,1.8224,1.8263,1.8303,1.8368,1.8407,1.8472,1.8535,1.8566,1.8568,1.865,1.8635,1.8634,1.8639,1.8674,1.8677,1.868,1.8639,1.8639,1.8639,0,0,1.7908,1.7956,1.8003,1.8049,1.8117,1.8157,1.8168,1.8243,1.8271,1.8337,1.8368,1.8414,1.8508,1.8553,1.8588,1.8628,1.8648,1.8644,1.8646,1.868,1.8683,1.8686,1.8699,1.8703,1.8648,1.8648,1.8648,0,1.7897,1.7977,1.8025,1.8077,1.8115,1.8155,1.8203,1.8244,1.8327,1.8351,1.8353,1.8471,1.8518,1.8592,1.8601,1.8629,1.8643,1.8635,1.8679,1.8682,1.8685,1.8699,1.8704,1.8647,1.8647,1.8647,1.8647,0,1.796,1.8014,1.8044,1.8123,1.8164,1.8214,1.8269,1.8305,1.8332,1.8371,1.8437,1.8494,1.856,1.8581,1.8607,1.8659,1.8658,1.8668,1.867,1.8687,1.87,1.8706,1.8645,1.8646,1.8646,1.8646,0,0,1.7961,1.8067,1.8077,1.8113,1.8192,1.8234,1.8285,1.8351,1.838,1.8436,1.8479,1.8558,1.8568,1.8607,1.8639,1.8669,1.8696,1.8676,1.8678,1.8677,1.8755,1.8746,1.8751,1.871,1.8711,1.8712,1.8749,0,1.7994,1.8088,1.8133,1.8207,1.8257,1.8296,1.8341,1.8393,1.8431,1.8479,1.8521,1.8575,1.8585,1.8609,1.864,1.8686,1.8712,1.8684,1.8751,1.8752,1.8732,1.8758,1.8749,1.8781,1.8755,1.8756,1.8757,0,1.8045,1.8101,1.818,1.8252,1.8275,1.8314,1.8378,1.8423,1.8483,1.8509,1.8553,1.8584,1.8638,1.8637,1.8712,1.8692,1.8722,1.8749,1.8751,1.8758,1.8755,1.8765,1.8793,1.8797,1.8765,1.8765,1.8764,0,1.8037,1.8132,1.8192,1.8222,1.8308,1.8334,1.8371,1.8431,1.8467,1.8522,1.8546,1.8607,1.864,1.8686,1.8732,1.8726,1.8803,1.8805,1.8825,1.8824,1.8839,1.8837,1.887,1.8859,1.8859,1.8859,1.8859,0,1.8069,1.8116,1.8189,1.8226,1.8279,1.833,1.8381,1.842,1.8473,1.8517,1.8554,1.8595,1.8654,1.8701,1.8738,1.8794,1.8809,1.8831,1.884,1.8827,1.8824,1.8847,1.8846,1.886,1.886,1.886,1.8859,0,1.8069,1.8121,1.8188,1.8264,1.8284,1.8319,1.8384,1.8421,1.8461,1.8516,1.8532,1.8595,1.8653,1.8704,1.8781,1.8805,1.8863,1.8874,1.8843,1.8847,1.8864,1.8861,1.8912,1.8921,1.8905,1.8905,1.8905,0,1.8085,1.8122,1.8202,1.8235,1.8271,1.8323,1.836,1.8412,1.8449,1.852,1.8548,1.8609,1.866,1.8751,1.8803,1.8862,1.8875,1.8889,1.8884,1.887,1.8874,1.8871,1.8875,1.8888,1.8888,1.8888,1.8888,0,1.8108,1.8132,1.8185,1.8246,1.829,1.8341,1.8392,1.8417,1.8478,1.8517,1.8578,1.8617,1.8696,1.8756,1.882,1.8858,1.8883,1.8889,1.8897,1.8884,1.8864,1.8874,1.8842,1.8888,1.8888,1.8888,1.8888,1.8888,1.8117,1.8151,1.8213,1.827,1.8314,1.8362,1.84,1.8445,1.8496,1.8564,1.8591,1.8652,1.8711,1.88,1.8838,1.8886,1.889,1.8901,1.8904,1.8906,1.8903,1.8856,1.8898,1.8898,1.8898,1.8898,1.8898,0,1.8141,1.8183,1.8235,1.8306,1.8351,1.8372,1.843,1.8466,1.8519,1.8572,1.8622,1.8691,1.8749,1.8806,1.8867,1.8894,1.8907,1.8908,1.8907,1.8915,1.8896,1.8883,1.8897,1.8897,1.8897,1.8897,1.8897,1.8897,1.8159,1.8218,1.8249,1.833,1.8371,1.8431,1.8463,1.8506,1.8549,1.8624,1.8673,1.871,1.8764,1.8829,1.8883,1.8899,1.8919,1.8917,1.8935,1.8917,1.8916,1.8916,1.8904,1.8921,1.8921,1.8949,1.895,1.895]},{"header":{"parameterUnit":"m.s-1","parameterCategory":1,"la1":30.2991,"la2":30.254,"lo1":-89.0895,"lo2":-89.0444,"dy":0.0017,"dx":0.0017,"nx":28,"ny":28,"refTime":"2023-09-10T21:00:00:Z","depth":0,"parameterNumber":3,"parameterNumberName":"V-component_of_WINDS"},"data":[0,0,0,0,0,0,0,0,0,0,0,0,0,0,0,0,0,0,0,0,0,0,0,0,0,0,0,0,0,0,0,0,0,0,0,0,0,0,0,0,0,0,0,0,0,0,0,0,0,0,0,0,0,0,0,0,0,0,2.5969,2.5969,0,2.5915,2.5914,2.5913,2.5875,2.5875,2.5874,2.5874,2.5813,2.5811,2.581,0,0,0,0,0,0,0,0,0,0,0,0,0,2.6036,2.6035,2.5969,2.5969,2.5968,2.5915,2.5914,2.5913,2.5875,2.5875,2.5874,2.5874,2.5813,2.5812,2.581,0,0,0,0,0,0,0,0,0,0,0,0,0,2.5997,2.6034,2.5969,2.5943,2.594,2.5915,2.5914,2.5913,2.5875,2.5874,2.5874,2.5874,2.5814,2.5812,2.581,2.5806,0,0,2.5803,2.5803,0,0,0,0,0,0,0,0,2.5999,2.5994,2.5947,2.5944,2.5941,2.5901,2.5915,2.5877,2.5875,2.5899,2.5874,2.5873,2.5842,2.5838,2.5828,2.5803,2.58,2.5803,2.5802,2.5801,2.5801,0,0,0,0,0,0,0,2.6002,2.5996,2.5948,2.5947,2.5943,2.5932,2.5926,2.5907,2.5874,2.5897,2.5894,2.5889,2.584,2.583,2.5827,2.5799,2.5803,2.5801,2.58,2.5799,2.5766,2.5767,0,0,0,0,0,0,2.6009,2.5999,2.5949,2.5946,2.597,2.5931,2.5924,2.5914,2.5874,2.5867,2.5889,2.5887,2.5834,2.5829,2.5824,2.5816,2.5801,2.5799,2.5798,2.5766,2.5767,2.5767,0,0,0,0,0,0,2.6011,2.6005,2.5951,2.5972,2.5964,2.593,2.592,2.5913,2.5903,2.5868,2.5861,2.5885,2.5833,2.5827,2.5811,2.5813,2.5798,2.5796,2.5766,2.5766,2.5767,2.58,0,0,0,0,0,0,2.6013,2.6006,2.6005,2.5972,2.5963,2.5941,2.592,2.5913,2.5901,2.5898,2.5862,2.5856,2.5833,2.5814,2.5809,2.581,2.5795,2.5765,2.5766,2.5767,2.5799,2.5802,2.5804,0,0,0,0,0,2.6015,2.6016,2.6006,2.6,2.5962,2.5941,2.5936,2.591,2.5901,2.5899,2.5876,2.5857,2.5814,2.5813,2.5806,2.5807,2.5765,2.5766,2.5766,2.5797,2.5801,2.5804,0,0,0,0,0,0,2.6049,2.6011,2.5999,2.5989,2.5969,2.5934,2.5931,2.5915,2.5895,2.5893,2.586,2.5853,2.5839,2.5822,2.5821,2.5801,2.5787,2.5787,2.5813,2.5816,2.5819,2.5823,2.5793,0,0,0,0,0,2.6056,2.6043,2.601,2.6005,2.5995,2.5965,2.5955,2.5937,2.5914,2.5905,2.588,2.5857,2.5838,2.5826,2.5807,2.5796,2.5787,2.5794,2.5797,2.5799,2.5799,2.579,2.5792,2.5769,2.5769,2.5769,0,0,2.6068,2.6046,2.604,2.6011,2.5993,2.5979,2.5958,2.5945,2.5934,2.5902,2.5885,2.5867,2.5838,2.5825,2.5817,2.5809,2.5803,2.58,2.5803,2.58,2.5791,2.5794,2.5796,2.577,2.577,2.577,0,0,2.6084,2.6067,2.606,2.6043,2.6017,2.5997,2.5995,2.5963,2.595,2.5934,2.5909,2.5895,2.5863,2.5844,2.583,2.5839,2.582,2.5834,2.5848,2.584,2.5842,2.5844,2.5846,2.5847,2.5834,2.5834,2.5834,0,2.6103,2.6083,2.6058,2.6046,2.6034,2.6006,2.5998,2.5982,2.595,2.5941,2.5933,2.5893,2.5872,2.5853,2.5855,2.5845,2.5841,2.5837,2.5844,2.5846,2.5846,2.5848,2.5849,2.5835,2.5835,2.5835,2.5835,0,2.6106,2.6093,2.609,2.6062,2.6049,2.6039,2.6011,2.6001,2.5984,2.5965,2.5947,2.5921,2.5896,2.589,2.5873,2.5868,2.5864,2.5851,2.5836,2.5851,2.5851,2.5852,2.5838,2.5837,2.5837,2.5836,0,0,2.6141,2.61,2.6099,2.6086,2.6055,2.6043,2.6031,2.6008,2.5999,2.5978,2.5966,2.594,2.5928,2.5912,2.5893,2.5886,2.5894,2.5874,2.5872,2.5877,2.5885,2.5894,2.5895,2.5882,2.5882,2.5882,2.5887,0,2.6151,2.6131,2.6108,2.6094,2.6081,2.6055,2.6044,2.6023,2.6005,2.5989,2.5968,2.595,2.5935,2.5926,2.5918,2.5895,2.5894,2.5894,2.5868,2.5868,2.5875,2.5896,2.5906,2.5912,2.5887,2.5887,2.5887,0,2.616,2.6142,2.6128,2.6098,2.6091,2.6083,2.6059,2.6046,2.6021,2.6007,2.599,2.597,2.5954,2.5943,2.592,2.592,2.5908,2.5895,2.5894,2.589,2.5877,2.589,2.5913,2.5914,2.5887,2.5887,2.5887,0,2.6185,2.6157,2.6145,2.6134,2.6099,2.6094,2.6079,2.6054,2.6041,2.602,2.6011,2.5988,2.5975,2.5957,2.5931,2.5925,2.591,2.5896,2.5897,2.5897,2.5894,2.5894,2.5913,2.5888,2.5888,2.5888,2.5888,0,2.6198,2.619,2.6156,2.6148,2.6137,2.6111,2.6101,2.6083,2.6061,2.6048,2.6024,2.6012,2.5978,2.5961,2.594,2.5924,2.5918,2.5906,2.59,2.5907,2.5908,2.5898,2.5896,2.5888,2.5888,2.5888,2.5888,0,2.6224,2.6201,2.6185,2.6154,2.6146,2.614,2.6112,2.6103,2.6083,2.6067,2.6062,2.603,2.6009,2.5982,2.5951,2.5937,2.5923,2.5914,2.5932,2.5928,2.593,2.5929,2.5942,2.5941,2.5918,2.5919,2.5919,0,2.6233,2.6227,2.6195,2.6186,2.6172,2.6157,2.6144,2.6118,2.6105,2.6077,2.607,2.6048,2.6029,2.5996,2.5969,2.5946,2.5936,2.5942,2.5932,2.5939,2.5934,2.5935,2.5933,2.5944,2.5944,2.5945,2.5945,0,2.6252,2.6241,2.6225,2.6204,2.6191,2.6173,2.6154,2.6147,2.6116,2.6103,2.6083,2.6068,2.6038,2.6015,2.5989,2.5971,2.5952,2.5949,2.5947,2.5954,2.5964,2.5957,2.5937,2.5948,2.5948,2.5947,2.5947,2.5947,2.6268,2.6261,2.6238,2.622,2.6204,2.6187,2.6177,2.6156,2.614,2.6114,2.6099,2.6079,2.6053,2.6016,2.5999,2.5981,2.5974,2.5972,2.5971,2.5971,2.5973,2.5968,2.5976,2.5976,2.5976,2.5976,2.5976,0,2.6284,2.6269,2.6253,2.6228,2.6214,2.62,2.6179,2.6167,2.615,2.6129,2.6111,2.6087,2.6065,2.6037,2.6013,2.6004,2.5995,2.5998,2.5998,2.5994,2.5981,2.5985,2.6006,2.6006,2.6006,2.6006,2.6006,2.6006,2.6291,2.6277,2.6264,2.6242,2.6225,2.6207,2.6195,2.6179,2.6162,2.6137,2.6119,2.6102,2.6077,2.6051,2.603,2.6022,2.6013,2.6019,2.6009,2.5997,2.5995,2.5992,2.5995,2.6018,2.6018,2.6022,2.6022,2.6022]}]]